This is the latest recevied weather packets stored in our database for station/object KR8N. If no packets are shown the sender has not sent any weather packets the latest 10 day(s).
| Time | Temp. | Humidity | Pressure | Rain* | Wind** | Luminosity | Snow |
|---|---|---|---|---|---|---|---|
| 1777738688 | 8.33° C | 52% | 1018.7 hPa | 0 mm | - | 263 W/m² | - |
| 1777738383 | 8.33° C | 54% | 1018.8 hPa | 0 mm | - | 186 W/m² | - |
| 1777738081 | 8.33° C | 50% | 1018.6 hPa | 0 mm | - | 131 W/m² | - |
| 1777737780 | 8.33° C | 52% | 1018.7 hPa | 0 mm | - | 130 W/m² | - |
| 1777737479 | 8.33° C | 50% | 1018.6 hPa | 0 mm | - | 146 W/m² | - |
| 1777737176 | 8.33° C | 50% | 1018.6 hPa | 0 mm | - | 187 W/m² | - |
| 1777736872 | 8.89° C | 52% | 1018.6 hPa | 0 mm | - | 189 W/m² | - |
| 1777736264 | 8.89° C | 49% | 1018.6 hPa | 0 mm | - | 424 W/m² | - |
| 1777735960 | 8.89° C | 49% | 1018.7 hPa | 0 mm | - | 287 W/m² | - |
| 1777735658 | 9.44° C | 47% | 1018.7 hPa | 0 mm | - | 468 W/m² | - |
| 1777735355 | 10.56° C | 53% | 1018.7 hPa | 0 mm | - | 292 W/m² | - |
| 1777735053 | 10° C | 50% | 1018.8 hPa | 0 mm | - | 889 W/m² | - |
| 1777734749 | 10° C | 48% | 1019 hPa | 0 mm | - | 862 W/m² | - |
| 1777734447 | 9.44° C | 48% | 1018.9 hPa | 0 mm | - | 738 W/m² | - |
| 1777734144 | 9.44° C | 55% | 1018.6 hPa | 0 mm | - | 735 W/m² | - |
| 1777733840 | 8.89° C | 51% | 1018.7 hPa | 0 mm | - | 372 W/m² | - |
| 1777733537 | 9.44° C | 53% | 1018.6 hPa | 0 mm | - | 349 W/m² | - |
| 1777733233 | 8.89° C | 52% | 1018.7 hPa | 0 mm | - | 531 W/m² | - |
| 1777732930 | 8.33° C | 56% | 1018.8 hPa | 0 mm | - | 428 W/m² | - |
| 1777732626 | 8.89° C | 56% | 1018.8 hPa | 0 mm | - | 371 W/m² | - |
| 1777732324 | 8.33° C | 57% | 1018.7 hPa | 0 mm | - | 470 W/m² | - |
| 1777732021 | 8.89° C | 52% | 1018.5 hPa | 0 mm | - | 391 W/m² | - |
| 1777731717 | 8.89° C | 54% | 1018.7 hPa | 0 mm | - | 435 W/m² | - |
| 1777731414 | 8.89° C | 53% | 1018.9 hPa | 0 mm | - | 320 W/m² | - |
| 1777731113 | 8.89° C | 56% | 1018.8 hPa | 0 mm | - | 349 W/m² | - |
* Rain latest hour (hover to see other rain measurements)
** Current wind speed in m/s (hover to see current wind gust speed)